Location: Home
(42.5358°N, 72.7383°W)
Time: 22:01:50
(UTC-05:00)

Vanguard 2 Rocket - Pass Details

Date: 09 December 2021
Orbit: 554 x 3325 km, 32.9° (Epoch: 21 January)

Event Time Altitude Azimuth Distance (km) Brightness Sun altitude
Rises 20:40:22 0° 264° (W) 3,744 10.7 -47.4°
Reaches altitude 10° 20:42:56 10° 253° (WSW) 3,081 10.0 -47.9°
Enters shadow 20:45:21 20° 236° (SW) 2,655 9.4 -48.3°
Maximum altitude 20:49:34 30° 195° (SSW) 2,603 - -49.1°
Drops below altitude 10° 20:59:58 10° 142° (SE) 4,914 - -50.9°
Sets 21:05:25 0° 133° (SE) 6,388 - -51.9°
